Regional Weather Roundup
Issued by NWS

Home | Current Version | Previous Version | Text Only | Print | Product List | Glossary Off
Versions: 1 2 3 4 5 6 7 8 9 10 11 12 13 14 15 16 17 18 19 20 21 22 23 24 25 26 27 28 29 30 31 32 33 34 35 36 37 38 39 40 41 42 43 44 45 46 47 48 49 50

000
ASUS45 KTFX 060919
RWRMT
MONTANA HOURLY WEATHER ROUNDUP
NATIONAL WEATHER SERVICE GREAT FALLS MT
219 AM MST FRI MAR 6 2015

NOTE: "FAIR" INDICATES FEW OR NO CLOUDS BELOW 12000 FEET WITH NO
SIGNIFICANT WEATHER AND/OR OBSTRUCTIONS TO VISIBILITY.

* THESE STATIONS ARE NOT UNDER NWS QUALITY CONTROL. THEY DO NOT
   REPORT WEATHER SUCH AS PRECIPITATION OR FOG.

MTZ001>007-043-061000-
WEST OF THE DIVIDE
CITY           SKY/WX    TMP DP  RH WIND       PRES   REMARKS
KALISPELL      PTCLDY    25  19  78 W3        30.30R
MISSOULA       CLOUDY    27  19  72 CALM      30.34R
BUTTE          PTCLDY    25  16  69 NW3       30.28R
MULLAN PASS    PTCLDY    28  14  56 VRB3      30.29R
* ANACONDA     PTCLDY    34  14  44 S3         N/A
* ESSEX        N/A       21  15  78 SE1        N/A
* EUREKA APT   PTCLDY    21  16  81 CALM      30.30F
* HAMILTON APT PTCLDY    36  18  48 S10       30.33R WCI  29
* LIBBY APT    PTCLDY    25  19  78 CALM      30.33R
* LINCOLN      N/A       34  11  38 S5G10      N/A   WCI  29
* LOOKOUT PASS N/A       30  18  61 NE1        N/A
* POLSON       N/A       33  16  50 SE2        N/A
* RONAN APT    PTCLDY    30  25  82 N/A        N/A
* SEELEY LAKE  N/A       18  12  77 N1         N/A
* THOMP F APT  PTCLDY    25  12  58 N5         N/A   WCI  19
$$

MTZ008-052>055-061000-
SOUTHWEST MONTANA
CITY           SKY/WX    TMP DP  RH WIND       PRES   REMARKS
BOZEMAN        MOCLDY    27  19  72 SW7       30.27R WCI  19
DILLON         MOCLDY    32  12  43 SW15      30.28R WCI  22
* W YELLOWSTON PTCLDY    11   6  80 N/A        N/A
* THREE FORKS  PTCLDY    32  16  52 N/A        N/A
* BOULDER HILL N/A       32   7  35 S2         N/A
* MONIDA PASS  N/A       20  10  65 SE12       N/A   WCI   8
* RAYNOLDS PAS N/A       16   2  54 S9         N/A   WCI   5
* WHITEHALL    N/A       30  10  43 NW4G10     N/A
* WISE RIVER   N/A       30  10  43 W6G13      N/A   WCI  24
$$

MTZ009>010-012-014-046-048-049-054-061000-
EAST SLOPES AND CENTRAL MONTANA
CITY           SKY/WX    TMP DP  RH WIND       PRES   REMARKS
CUT BANK       PTCLDY    37  18  46 W26G35    30.08R WCI  25
GREAT FALLS    PTCLDY    32  16  52 SW10      30.12S WCI  24
HELENA         MOCLDY    43  14  31 W7        30.24R
MALMSTROM AFB  PTCLDY    32  18  56 SW15      30.13S WCI  22
* CONRAD       CLEAR     43  21  42 SW13       N/A
* DEARBORN     N/A       45  15  30 SE4G10     N/A
* EAST GLACIER N/A       34  14  44 W31G41     N/A   WCI  20
* MONARCH      N/A       35   9  34 W19G26     N/A   WCI  24
* PENDROY      N/A       37  18  46 NW14G19    N/A   WCI  28
* ROGERS PASS  N/A       33  11  40 SE13G22    N/A   WCI  24
* SWEET GRASS  N/A       36  20  52 W21G26     N/A   WCI  25
* WHITE SULPH  N/A       36  12  37 NW4G12     N/A
$$

MTZ011-013-016-021-035-040-045-047-050-051-061000-
NORTH CENTRAL MONTANA
CITY           SKY/WX    TMP DP  RH WIND       PRES   REMARKS
HAVRE          PTCLDY    36  18  48 SW18G26   30.06F WCI  26
LEWISTOWN      CLEAR     30  18  61 SW10      30.12R WCI  21
* N BAR RANCH  CLEAR     32  14  47 W5        30.11S WCI  27
* CHINOOK      CLEAR     25  18  75 CALM      30.07S
* FORT BENTON  PTCLDY    36  18  48 SW8       30.12S WCI  30
* CHESTER      N/A       32  16  52 W8G13      N/A   WCI  25
* DENTON       N/A       36  18  48 SW13G19    N/A   WCI  27
* GEYSER       N/A       38  15  39 W17G22     N/A   WCI  29
* JUDITH GAP   N/A       33  14  45 W13G19     N/A   WCI  24
* LOMA         N/A       33  17  52 W5         N/A   WCI  28
$$

MTZ017>020-022>027-061-062-061000-
NORTHEAST MONTANA
CITY           SKY/WX    TMP DP  RH WIND       PRES   REMARKS
GLASGOW        CLEAR     28  19  69 SW5       30.06R WCI  22
GLENDIVE       PTCLDY    27  16  63 NW10      30.07S WCI  18
JORDAN         PTCLDY    27  21  78 W5        30.07S WCI  21
SIDNEY         CLEAR     25  18  75 W9        30.09S WCI  16
WOLF POINT     MOCLDY    27  19  72 CALM      30.08R
* BEAVER HILL  N/A       30  16  56 N/A        N/A
* CIRCLE       N/A       28  19  69 N/A        N/A
* LINDSAY DVD  N/A       29  17  61 W8         N/A   WCI  21
* NAVAJO       N/A       23  18  81 W7         N/A   WCI  15
* PLENTYWOOD A PTCLDY    25  16  69 W5        30.04S WCI  19
* POPLAR APT   PTCLDY    25  19  78 W3        30.07S
* SACO         N/A       27  19  72 S4         N/A
$$

MTZ028>042-056>058-061000-
SOUTHCENTRAL AND SOUTHEAST MONTANA
CITY           SKY/WX    TMP DP  RH WIND       PRES   REMARKS
BAKER          CLEAR     27  14  58 NW3       30.06S
BILLINGS       FAIR      36  14  40 SW17      30.16R WCI  26
LIVINGSTON     PTCLDY    41  12  30 SW30G43   30.18S
MILES CITY     PTCLDY    27  16  63 NW7       30.09R WCI  19
* BIG TIMBER A PTCLDY    41  12  30 W23G32    30.19R
* FORSYTH APT  PTCLDY    34  18  52 SW6       30.11R WCI  29
* LAUREL APT   CLEAR     30  10  43 N/A        N/A
* ROUNDUP APT  CLEAR     34   9  35 N/A        N/A
* ALZADA       N/A       30  20  66 SW6        N/A   WCI  24
* HYSHAM       N/A       34  10  37 W6G11      N/A   WCI  29
* REED POINT   N/A       43  15  32 W6         N/A
* ROSCOE HILL  N/A       39   0  19 W3G8       N/A
$$

REGIONAL REPORTS...DAKOTAS
CITY           SKY/WX    TMP DP  RH WIND       PRES   REMARKS
WILLISTON      PTCLDY    23  16  74 NE5       30.06R WCI  16
DICKINSON      PTCLDY    21  12  68 W8        30.02R WCI  11
BEACH          CLOUDY    27  16  63 W6        30.06R WCI  20
CROSBY         CLEAR     18  14  84 W12       30.05R WCI   5
TIOGA          CLEAR     12  12 100 W6        30.06S WCI   2
WATFORD CITY   CLEAR     21  16  81 SW3       30.04R
BISMARCK       CLEAR     21  14  74 W5        30.05R WCI  14
GRAND FORKS    CLEAR     12   7  80 NW10      29.96R WCI  -1
FARGO          CLEAR     12   7  80 S8        29.98S
BUFFALO SD     PTCLDY    27  14  58 W9        30.00S WCI  18
RAPID CITY     CLOUDY    32  16  52 SW5       30.11S WCI  27
$$

REGIONAL REPORTS...WYOMING/IDAHO/WASHINGTON
CITY           SKY/WX    TMP DP  RH WIND       PRES   REMARKS
GILLETTE       CLOUDY    36  18  48 SW14      30.14R WCI  27
SHERIDAN       CLEAR     25  16  69 S5        30.15R WCI  19
CODY           PTCLDY    39  10  30 W16G26    30.17S WCI  30
YELLOWSTONE LA MOCLDY     3   0  87 NW3       30.35R
SALMON         PTCLDY    25  14  63 CALM      30.38R
MULLAN PASS    PTCLDY    28  14  56 VRB3      30.29S
SAND POINT     PTCLDY    27  23  85 CALM      30.35S
SPOKANE        MOCLDY    36  21  54 SE6       30.33R WCI  31
$$

REGIONAL REPORTS...ALBERTA
CITY           SKY/WX    TMP DP  RH WIND       PRES   REMARKS
CALGARY        FAIR      41  19  41 W8        29.97F
LETHBRIDGE     CLEAR     41  19  41 W23G30    30.04R
MEDICINE HAT   MOCLDY    32  27  82 SW9       30.00S WCI  24
EDMONTON       LGT SNOW  37  27  67 SW3       29.89F
WATERTON GATE  N/A       37  19  48 SW21G30    N/A   WCI  26
CARDSTON       N/A       41  23  49 W20G29     N/A
MILK RIVER     N/A       34  23  64 W15        N/A   WCI  24
$$

REGIONAL REPORTS...SASKATCHEWAN
CITY           SKY/WX    TMP DP  RH WIND       PRES   REMARKS
SWIFT CURRENT  CLOUDY    27  21  78 W10       29.98R WCI  18
REGINA         FAIR      10   9  96 W7        30.01S WCI  -1
VAL MARIE      N/A       27  23  85 SW5        N/A   WCI  21
ASSINIBOIA     N/A       19  16  88 SW5        N/A   WCI  12
CORONACH       N/A       16  14  92 NW1        N/A

$$




USA.gov is the U.S. government's official web portal to all federal, state and local government web resources and services.